| time (UTC) | temp C | wind direction | speed KPH | gust KPH | rain 1hr cm | rain 24hr cm | rain mn cm | humidity % | barometer mb |
| 20260505091526 | 5 | 335 | 9.7 | 19.3 | 0.00 | 0.03 | 0.00 | 92 | 1010.9 |
| 20260505090032 | 4 | 229 | 12.9 | 19.3 | 0.00 | 0.03 | 0.00 | 93 | 1010.8 |
| 20260505084530 | 5 | 205 | 11.3 | 19.3 | 0.00 | 0.05 | 0.00 | 92 | 1010.5 |
| 20260505083026 | 5 | 215 | 12.9 | 19.3 | 0.00 | 0.05 | 0.00 | 92 | 1010.3 |
| 20260505081530 | 5 | 250 | 12.9 | 20.9 | 0.00 | 0.05 | 0.00 | 92 | 1010.0 |
| 20260505080030 | 5 | 229 | 12.9 | 22.5 | 0.00 | 0.05 | 0.00 | 92 | 1009.8 |
| 20260505074526 | 5 | 218 | 14.5 | 22.5 | 0.00 | 0.08 | 0.00 | 92 | 1009.5 |
| 20260505073030 | 5 | 235 | 12.9 | 19.3 | 0.00 | 0.08 | 0.00 | 92 | 1009.5 |
| 20260505071529 | 4 | 242 | 9.7 | 14.5 | 0.00 | 0.08 | 0.00 | 91 | 1009.4 |
| 20260505070027 | 5 | 227 | 6.4 | 17.7 | 0.00 | 0.08 | 0.00 | 91 | 1009.1 |
| 20260505064527 | 5 | 248 | 9.7 | 17.7 | 0.00 | 0.10 | 0.00 | 90 | 1008.8 |
| 20260505063025 | 5 | 269 | 12.9 | 24.1 | 0.00 | 0.10 | 0.00 | 90 | 1008.5 |
| 20260505061529 | 5 | 241 | 16.1 | 29.0 | 0.00 | 0.10 | 0.00 | 90 | 1008.1 |
| 20260505060026 | 5 | 196 | 19.3 | 32.2 | 0.00 | 0.10 | 0.00 | 90 | 1007.7 |
| 20260505054541 | 5 | 236 | 17.7 | 29.0 | 0.00 | 0.13 | 0.00 | 91 | 1007.6 |
| 20260505053027 | 5 | 239 | 16.1 | 25.7 | 0.00 | 0.13 | 0.00 | 91 | 1007.4 |
| 20260505051528 | 4 | 225 | 14.5 | 24.1 | 0.00 | 0.13 | 0.00 | 92 | 1007.3 |
| 20260505041531 | 4 | 222 | 14.5 | 30.6 | 0.00 | 0.13 | 0.00 | 91 | 1006.4 |
| 20260505040040 | 4 | 246 | 20.9 | 29.0 | 0.00 | 0.13 | 0.00 | 91 | 1006.2 |
| 20260505034536 | 5 | 207 | 17.7 | 29.0 | 0.00 | 0.13 | 0.00 | 90 | 1006.2 |
| 20260505033026 | 5 | 229 | 19.3 | 29.0 | 0.00 | 0.13 | 0.00 | 89 | 1006.1 |
| 20260505031527 | 5 | 231 | 16.1 | 27.4 | 0.00 | 0.13 | 0.00 | 89 | 1005.9 |
| 20260505030028 | 5 | 238 | 16.1 | 29.0 | 0.00 | 0.13 | 0.00 | 88 | 1005.6 |
| 20260505024528 | 5 | 243 | 16.1 | 30.6 | 0.00 | 0.13 | 0.13 | 87 | 1005.4 |
| 20260505023028 | 6 | 217 | 17.7 | 33.8 | 0.00 | 0.13 | 0.13 | 86 | 1005.4 |
| 20260505021529 | 6 | 253 | 16.1 | 29.0 | 0.00 | 0.13 | 0.13 | 85 | 1005.0 |
| 20260505020037 | 6 | 208 | 14.5 | 27.4 | 0.00 | 0.13 | 0.13 | 85 | 1005.0 |
| 20260505014530 | 6 | 201 | 12.9 | 24.1 | 0.00 | 0.13 | 0.13 | 84 | 1005.0 |
| 20260505013030 | 6 | 225 | 12.9 | 22.5 | 0.00 | 0.13 | 0.13 | 84 | 1005.0 |
| 20260505011530 | 6 | 218 | 9.7 | 22.5 | 0.00 | 0.13 | 0.13 | 83 | 1004.8 |
| 20260505010027 | 6 | 216 | 12.9 | 25.7 | 0.00 | 0.13 | 0.13 | 82 | 1004.6 |
| 20260505004528 | 6 | 201 | 16.1 | 24.1 | 0.00 | 0.18 | 0.13 | 81 | 1004.9 |
| 20260505003027 | 7 | 242 | 16.1 | 25.7 | 0.00 | 0.18 | 0.13 | 80 | 1004.7 |
| 20260505001528 | 7 | 206 | 16.1 | 24.1 | 0.00 | 0.18 | 0.13 | 80 | 1004.5 |
| 20260505000042 | 6 | 235 | 16.1 | 29.0 | 0.00 | 0.18 | 0.13 | 80 | 1004.2 |
| 20260504234528 | 7 | 236 | 14.5 | 25.7 | 0.00 | 0.38 | 0.13 | 78 | 1003.7 |
| 20260504233026 | 7 | 213 | 14.5 | 33.8 | 0.00 | 0.38 | 0.13 | 76 | 1003.5 |
| 20260504231530 | 7 | 239 | 20.9 | 29.0 | 0.00 | 0.38 | 0.13 | 76 | 1003.4 |
| 20260504230058 | 7 | 222 | 19.3 | 29.0 | 0.00 | 0.38 | 0.13 | 75 | 1003.1 |
| 20260504224528 | 8 | 219 | 16.1 | 27.4 | 0.00 | 1.02 | 0.13 | 73 | 1002.8 |
| 20260504223028 | 8 | 209 | 12.9 | 29.0 | 0.00 | 1.02 | 0.13 | 71 | 1002.8 |
| 20260504221528 | 8 | 210 | 16.1 | 27.4 | 0.00 | 1.02 | 0.13 | 70 | 1002.7 |
| 20260504220042 | 8 | 220 | 16.1 | 27.4 | 0.00 | 1.02 | 0.13 | 71 | 1002.4 |
| 20260504214534 | 10 | 194 | 17.7 | 37.0 | 0.00 | 1.37 | 0.13 | 65 | 1002.3 |
| 20260504213031 | 12 | 275 | 19.3 | 46.7 | 0.00 | 1.37 | 0.13 | 54 | 1002.0 |
| 20260504211536 | 12 | 236 | 20.9 | 49.9 | 0.00 | 1.37 | 0.13 | 56 | 1001.9 |
| 20260504210026 | 13 | 254 | 27.4 | 45.1 | 0.00 | 1.37 | 0.13 | 54 | 1001.7 |
| 20260504204536 | 12 | 272 | 24.1 | 48.3 | 0.00 | 1.68 | 0.13 | 59 | 1001.4 |
| 20260504203028 | 12 | 260 | 22.5 | 46.7 | 0.00 | 1.68 | 0.13 | 59 | 1001.2 |
| 20260504201528 | 12 | 244 | 30.6 | 53.1 | 0.00 | 1.68 | 0.13 | 57 | 1001.0 |
| 20260504200030 | 12 | 267 | 30.6 | 54.7 | 0.00 | 1.68 | 0.13 | 60 | 1000.7 |
| 20260504194528 | 12 | 271 | 35.4 | 51.5 | 0.00 | 1.70 | 0.13 | 59 | 1000.5 |
| 20260504193030 | 11 | 273 | 29.0 | 53.1 | 0.00 | 1.70 | 0.13 | 61 | 1000.3 |
| 20260504191529 | 12 | 241 | 38.6 | 64.4 | 0.00 | 1.70 | 0.13 | 61 | 999.9 |
| 20260504190030 | 11 | 251 | 37.0 | 64.4 | 0.00 | 1.70 | 0.13 | 65 | 999.8 |
| 20260504184527 | 11 | 288 | 33.8 | 54.7 | 0.00 | 1.73 | 0.13 | 69 | 999.5 |
| 20260504183030 | 11 | 254 | 33.8 | 62.8 | 0.00 | 1.73 | 0.13 | 72 | 999.4 |
| 20260504181531 | 10 | 228 | 33.8 | 62.8 | 0.00 | 1.73 | 0.13 | 73 | 999.3 |
| 20260504180028 | 10 | 254 | 30.6 | 57.9 | 0.00 | 1.73 | 0.13 | 74 | 999.0 |
| 20260504174530 | 10 | 263 | 32.2 | 56.3 | 0.00 | 1.73 | 0.13 | 76 | 998.8 |
| 20260504173030 | 9 | 237 | 38.6 | 72.4 | 0.00 | 1.73 | 0.13 | 77 | 998.6 |
| 20260504171528 | 9 | 252 | 35.4 | 59.5 | 0.00 | 1.73 | 0.13 | 79 | 998.4 |